Theta_e
313 313 315 318 319 323 327 323 319 321 322 314 314 315 318 321 321 321 321 320 321 324 325 324 325 322 322 322 325 345 351 351 353 352 351 356 353 351 351 348 350 346 347 346 341 335 333 334 338 343 345 347 347 347 346 342 339 338 336 331 328 328 331 335 337 335 334 332 331 336 339 339 339 340 340 340 340 340 339 339 337 337 338 338 337 337 338 338 337 336 336 336 335 335 335 335 334
317 319 322 324 325 324 325 323 318 317 317 312 314 316 317 322 321 320 322 321 322 322 323 322 321 321 321 323 323 340 350 349 350 353 354 353 352 352 350 349 347 345 347 346 345 343 340 340 338 343 347 348 348 347 346 343 340 338 335 331 328 329 333 336 338 337 337 335 332 335 337 338 339 340 340 340 339 340 339 338 338 338 339 338 338 338 338 338 339 338 336 335 335 335 334 334 333
322 327 327 323 323 323 325 325 317 312 313 311 313 319 320 321 321 320 321 320 321 320 322 321 321 322 321 326 330 343 351 349 349 351 352 353 353 350 348 348 346 346 345 344 346 346 345 344 341 345 348 348 348 347 346 343 340 337 334 332 328 331 335 338 340 340 340 336 333 335 336 337 338 338 339 339 339 339 337 337 339 340 339 339 339 339 338 339 339 339 338 335 334 334 333 332 330
324 329 328 322 320 322 323 323 319 312 310 309 310 319 322 320 320 320 320 320 321 320 320 320 322 326 332 340 342 348 351 348 349 349 351 352 352 349 348 346 346 345 344 344 344 345 346 344 343 346 348 348 348 347 345 343 340 337 334 332 330 333 338 342 342 341 340 336 334 335 335 334 334 337 338 339 340 337 335 338 341 340 339 339 339 339 339 339 339 339 338 335 333 332 330 328 326
323 325 325 322 319 322 323 321 320 313 309 311 310 317 321 320 321 320 320 320 320 320 320 321 321 328 345 350 348 350 349 348 348 350 352 352 351 350 348 346 346 345 343 343 343 345 345 344 345 347 348 348 348 347 345 343 339 337 335 332 332 337 342 343 342 340 339 336 334 334 335 334 333 337 339 340 339 336 336 340 340 340 339 339 339 339 339 339 339 338 337 334 333 330 326 324 321
320 323 323 321 322 323 324 320 316 313 315 318 315 318 321 319 320 319 321 320 321 322 321 321 320 335 351 351 351 351 350 349 349 352 353 352 350 349 347 346 345 343 343 343 344 346 345 344 345 346 348 348 348 346 344 343 340 338 336 334 335 340 343 342 341 340 337 335 333 334 337 338 335 337 340 339 338 336 339 341 339 339 340 340 340 340 341 340 339 339 338 335 334 331 326 321 318
319 321 321 320 321 323 322 317 314 315 318 321 319 319 320 319 320 319 320 322 322 322 321 322 320 337 351 351 351 351 349 349 351 352 352 350 349 348 347 346 345 344 343 343 344 345 344 344 344 346 347 347 347 345 344 343 341 340 338 336 338 340 341 341 340 338 336 334 334 336 340 341 337 336 338 338 337 338 341 341 338 340 341 341 341 340 341 340 340 339 338 337 335 334 328 320 318
319 321 320 318 319 320 318 315 315 318 319 321 320 320 319 319 320 319 319 320 321 324 322 323 322 333 346 350 352 350 349 351 352 352 351 350 349 348 347 345 344 343 343 343 345 345 344 344 344 346 346 346 346 345 344 343 341 341 339 338 339 340 338 338 338 337 338 337 338 339 341 341 337 335 336 336 337 340 341 340 339 340 341 341 341 340 341 340 340 339 337 336 335 334 330 319 320
320 321 320 320 318 318 316 314 315 319 320 320 319 319 319 319 320 319 319 319 322 325 321 323 325 333 346 353 353 349 349 352 352 351 351 349 349 347 346 344 344 344 344 344 344 343 344 343 344 345 345 345 344 343 343 342 341 340 339 339 339 338 338 336 336 336 339 339 338 339 340 340 338 335 336 338 339 341 340 340 340 340 340 340 340 340 340 340 338 338 336 336 335 334 330 320 323
320 320 321 323 318 313 312 315 317 319 321 319 318 319 319 319 319 319 320 321 323 325 324 325 323 336 349 353 352 350 350 352 352 352 351 349 348 347 346 345 344 344 345 345 343 343 343 343 343 343 344 344 343 342 342 340 339 339 339 338 339 340 339 336 335 335 336 336 337 338 339 339 339 337 338 340 340 340 341 340 341 340 340 340 339 340 339 338 338 336 334 335 335 334 331 321 322
318 319 320 320 316 310 309 314 317 319 319 318 320 319 319 319 319 320 320 322 323 325 327 323 321 341 352 353 353 350 350 351 352 351 350 349 347 347 345 345 344 344 344 343 342 342 342 343 344 343 343 343 343 342 341 340 339 340 339 339 340 341 338 335 338 337 336 338 339 338 338 339 339 339 339 340 339 340 340 341 341 339 340 340 340 340 338 338 336 334 332 334 335 334 331 322 320
318 320 320 315 313 313 313 314 315 320 319 317 319 319 319 319 320 319 320 323 325 326 325 325 331 345 352 354 353 350 351 351 351 351 350 349 347 347 345 345 345 344 343 341 342 343 342 343 344 343 343 343 342 342 341 340 341 340 339 340 340 338 336 337 341 341 339 340 341 338 338 338 339 340 340 339 339 339 340 341 341 339 340 340 339 339 338 337 334 333 333 333 334 332 329 324 321
319 320 319 315 315 315 315 315 316 320 318 319 319 319 320 319 320 319 321 323 326 328 330 339 342 348 353 354 354 350 351 349 351 350 349 349 347 347 345 345 344 344 343 341 342 342 342 342 342 343 343 342 342 342 342 341 341 341 340 339 338 336 337 340 342 341 341 342 341 338 337 337 338 339 340 339 338 338 339 339 340 340 339 339 339 338 337 335 333 333 333 332 332 329 327 326 322
319 320 320 318 318 317 315 314 316 315 315 320 319 319 320 319 320 319 321 322 325 329 335 344 343 349 353 355 353 350 350 347 349 351 349 349 348 347 346 345 344 344 343 341 341 342 343 342 342 342 342 342 341 341 341 341 340 339 338 336 335 337 339 341 341 342 342 342 341 339 336 336 338 338 339 340 339 338 337 338 339 339 338 337 337 337 336 334 333 333 333 332 331 328 327 325 322
318 318 319 318 317 316 316 315 316 313 314 319 319 319 319 319 320 320 323 324 330 333 336 342 341 348 353 354 353 350 349 348 350 350 349 349 348 347 346 345 344 343 342 342 341 341 341 341 342 341 340 341 340 340 339 339 338 337 336 334 336 338 339 340 340 341 341 341 340 338 336 335 336 337 338 339 339 338 337 338 338 337 336 336 335 336 335 334 332 333 333 332 331 329 327 325 326
317 318 317 317 313 313 315 317 317 313 316 319 319 320 318 320 321 320 325 324 332 335 336 340 340 346 348 349 352 350 350 350 350 349 349 349 348 347 345 345 344 343 342 342 341 341 341 340 342 340 340 341 340 339 338 338 336 335 335 336 337 338 338 339 339 339 339 340 339 338 338 336 336 335 335 336 338 338 338 338 337 337 336 335 334 335 335 333 332 333 333 332 332 330 327 326 330
317 316 316 314 313 312 315 318 316 314 317 320 319 319 318 320 320 321 324 323 330 334 338 342 342 343 343 345 350 351 351 350 350 350 350 348 348 347 346 346 344 343 343 343 342 341 341 341 341 340 341 342 340 339 336 337 336 335 337 337 338 338 339 339 339 338 338 339 338 339 337 337 337 335 333 332 334 336 337 336 336 335 335 334 334 335 335 333 332 333 334 333 332 331 328 327 331
316 317 315 312 315 315 317 319 317 317 319 318 319 318 319 318 319 321 320 326 331 335 343 344 344 343 342 347 352 351 351 351 350 350 349 348 347 347 346 346 344 343 343 343 342 342 341 342 341 341 343 343 342 340 337 336 335 336 338 337 338 338 338 337 338 338 338 338 339 338 336 338 339 337 334 332 333 333 333 333 333 332 332 333 334 334 335 333 332 332 333 333 332 332 328 329 332
316 317 314 313 317 317 318 318 317 318 317 317 318 318 319 317 320 320 318 327 332 337 344 345 345 344 344 349 352 352 352 351 351 350 349 349 348 347 347 346 345 344 344 344 343 343 342 342 341 342 343 342 342 341 339 335 334 337 338 337 338 338 336 335 336 339 338 337 337 336 336 339 339 338 337 336 336 334 333 332 332 330 329 330 332 334 334 333 332 332 333 333 333 332 331 330 331
315 316 315 315 317 318 319 318 317 317 316 317 318 318 319 318 320 319 319 322 325 339 344 345 347 346 345 349 350 351 352 351 351 351 350 348 347 347 347 347 345 344 344 344 343 343 343 342 342 342 342 342 341 341 340 336 334 339 339 338 339 336 334 336 337 338 337 336 337 337 337 339 339 338 338 338 338 336 334 333 332 331 330 331 331 332 333 331 332 332 332 333 333 333 335 334 333
315 315 315 316 318 318 318 317 317 317 317 317 317 317 317 317 319 319 320 318 325 343 344 343 345 345 346 347 348 350 351 351 350 349 350 349 348 347 347 346 346 345 344 344 345 343 343 342 341 342 342 342 341 340 340 337 336 339 339 339 339 336 335 337 337 336 336 336 337 337 337 338 338 338 337 337 337 335 334 333 331 331 333 332 330 331 331 330 331 332 332 333 333 335 337 336 335
315 316 315 316 317 317 318 318 317 317 317 316 316 316 316 318 318 317 321 317 324 341 342 341 342 343 345 346 348 349 351 350 348 347 349 349 349 347 347 347 346 346 345 344 344 343 342 341 341 342 341 342 341 338 339 338 338 338 338 338 338 337 337 338 337 336 336 336 335 336 337 337 338 336 337 336 335 335 334 332 330 330 333 332 331 332 331 330 331 332 332 333 334 336 337 336 336
315 316 316 316 317 317 318 318 317 317 316 316 316 316 317 317 318 318 320 318 321 333 335 339 340 341 344 346 348 350 350 344 342 346 349 349 349 348 347 347 346 346 346 344 341 340 340 340 340 341 340 340 340 337 337 337 337 338 337 337 337 338 338 338 337 337 337 336 336 335 336 337 337 335 335 336 335 336 334 333 332 333 334 332 332 333 332 331 331 332 332 333 334 334 335 335 335
315 316 316 317 317 316 318 317 317 316 315 316 316 317 317 316 317 318 319 318 321 327 331 338 339 341 343 347 349 349 348 341 341 346 348 349 348 347 348 347 346 346 344 339 338 340 342 341 341 342 340 339 339 338 337 337 338 338 338 337 337 337 337 338 337 336 337 336 335 335 335 336 336 336 335 335 335 335 334 334 334 334 334 332 333 334 333 332 331 332 332 333 333 333 334 334 335
315 315 316 316 317 316 317 316 317 316 315 317 316 316 316 317 317 316 318 318 319 322 329 337 339 340 343 346 349 349 347 344 346 347 348 349 348 347 347 347 346 345 340 337 338 341 342 341 341 341 340 339 338 339 337 338 339 338 338 338 338 338 337 339 338 336 335 336 336 335 336 335 335 335 334 335 335 334 334 334 334 333 333 332 332 333 333 332 331 332 332 332 332 332 333 333 334
315 316 315 315 316 316 317 317 317 316 316 317 316 316 315 317 316 316 318 318 320 321 327 337 339 339 342 343 347 350 347 346 347 346 349 349 348 348 348 347 347 342 337 338 338 340 342 341 340 340 340 340 338 339 339 339 339 338 338 339 339 339 338 339 338 335 334 336 337 336 336 336 335 334 334 334 334 333 333 334 334 333 333 333 332 332 332 332 331 332 332 332 332 331 332 333 333
315 316 315 316 316 316 316 316 317 317 317 317 316 316 316 317 316 316 317 317 320 321 324 333 339 340 339 340 345 348 347 347 346 345 349 350 349 348 347 347 345 338 337 339 338 339 342 340 340 340 340 339 338 339 339 339 338 338 339 339 339 339 339 339 338 337 336 337 337 336 336 335 334 334 334 335 334 333 334 333 333 333 333 333 332 333 332 332 332 332 333 333 331 330 332 333 332
316 316 316 317 317 316 316 315 317 316 316 316 315 316 316 316 316 316 317 318 320 322 322 327 337 340 338 338 343 346 348 348 346 347 350 351 348 348 348 347 342 336 337 339 339 340 341 339 340 340 339 338 338 339 338 337 338 338 339 340 339 338 337 338 338 338 337 337 337 335 335 334 334 335 334 335 333 333 334 333 333 333 333 333 333 334 333 333 332 332 333 332 331 331 334 334 332
315 316 315 316 316 315 316 315 316 316 316 316 315 315 314 315 315 316 317 318 320 323 323 327 337 340 337 340 343 346 348 346 346 348 350 350 348 348 347 346 340 335 338 340 340 340 341 340 339 340 340 339 338 340 337 336 337 338 339 339 339 338 337 337 338 338 338 338 337 335 335 334 334 334 334 334 333 333 333 333 333 333 333 334 334 334 334 333 333 333 331 331 332 332 333 334 333
315 315 315 314 314 314 315 316 315 316 316 316 315 311 312 315 315 316 317 317 322 321 323 333 338 339 338 342 343 343 344 341 340 344 348 349 348 348 348 343 337 337 340 340 338 340 340 340 339 339 341 339 338 340 339 337 338 338 339 338 338 337 337 337 337 338 338 337 336 335 335 335 335 334 334 333 332 332 333 332 332 334 335 335 335 334 334 334 334 333 332 334 333 332 332 332 332
315 315 314 314 311 311 316 316 315 316 316 317 315 309 311 316 315 317 317 316 320 321 323 336 340 339 338 342 342 339 340 338 336 338 344 348 348 348 348 341 337 339 341 340 339 340 341 340 340 339 340 339 337 340 341 338 338 339 339 338 337 336 335 336 336 337 337 336 336 335 335 336 335 335 334 332 330 331 331 331 333 335 335 335 335 335 334 334 335 334 334 334 332 332 332 332 333
315 312 310 313 310 311 317 317 316 315 315 316 314 310 311 315 316 317 318 317 320 320 322 336 341 339 337 340 342 340 338 338 337 334 339 346 348 349 347 339 336 339 341 340 340 341 341 341 341 340 340 340 338 340 340 339 339 339 339 338 337 336 334 335 335 336 337 336 336 336 336 336 335 335 334 332 332 332 332 333 335 335 334 334 335 334 334 334 334 334 333 334 333 332 332 333 335
315 313 309 310 310 311 315 316 317 316 316 316 314 312 313 315 317 318 318 317 320 320 323 335 339 338 336 337 340 342 341 340 339 338 340 346 347 348 347 339 335 339 341 341 340 341 342 341 341 342 341 340 339 339 339 339 339 338 338 337 336 336 334 335 335 336 336 336 336 335 335 335 334 334 333 332 334 333 334 336 335 333 332 334 334 333 335 334 333 333 332 334 335 332 330 333 334
312 313 311 311 312 311 312 314 317 317 316 315 316 314 313 315 317 319 319 318 319 319 323 332 335 335 335 335 337 340 341 341 339 339 342 344 345 347 346 340 336 338 340 341 340 341 342 341 341 341 340 340 340 340 339 338 339 338 338 336 336 336 335 334 334 335 335 335 335 334 332 331 331 331 331 332 335 334 335 336 334 333 333 334 333 333 335 334 333 333 333 334 334 331 332 333 332
311 312 311 311 313 312 312 314 317 317 316 316 316 314 315 316 317 318 319 320 320 319 321 327 331 332 335 336 339 341 339 338 339 338 341 342 341 345 345 342 337 338 340 340 340 341 343 341 341 340 339 340 340 341 339 339 339 338 337 336 336 335 334 333 333 334 335 334 335 334 331 329 329 331 331 332 333 333 334 335 335 335 334 334 334 334 335 333 333 333 333 333 333 332 333 333 332
314 314 313 312 311 312 315 317 316 317 316 315 316 314 315 315 315 318 318 320 318 319 321 322 327 333 337 339 342 347 341 335 338 337 338 341 338 342 345 343 338 339 340 340 340 341 342 342 341 340 340 340 340 340 339 339 339 336 336 336 335 334 333 333 333 333 334 334 334 335 334 332 331 330 331 332 332 333 334 334 335 335 334 334 334 335 334 332 333 332 332 333 333 332 334 333 331
316 316 315 313 312 312 316 318 316 318 316 315 316 315 315 316 315 317 317 319 318 318 321 321 323 330 337 337 337 344 343 339 339 335 336 339 337 342 345 343 338 338 340 340 340 341 342 342 341 340 341 340 340 340 338 338 339 337 337 336 335 334 333 334 335 333 333 333 334 335 334 333 332 331 333 333 333 335 335 335 335 335 334 334 334 335 334 332 332 332 332 333 333 333 334 333 331
316 315 314 314 313 313 317 318 316 318 316 315 318 316 315 316 316 317 317 318 318 318 319 321 321 323 333 337 335 336 339 341 342 338 336 334 335 342 346 343 338 338 339 340 340 341 342 342 341 340 340 340 340 339 338 337 338 338 337 336 334 334 334 335 335 334 333 333 334 334 333 332 332 332 333 333 333 335 335 335 334 332 332 334 334 334 333 332 333 334 333 332 334 334 333 332 331
316 316 314 313 314 315 316 317 317 317 316 315 317 315 316 317 316 317 317 317 317 318 319 319 321 320 324 333 335 336 336 340 343 341 336 333 336 343 346 344 339 336 338 340 340 341 343 342 340 340 340 339 339 338 338 338 337 337 335 335 335 335 335 334 334 333 333 334 334 335 333 330 330 331 332 332 333 334 333 333 331 328 329 332 333 333 332 332 333 334 333 332 333 333 332 331 331
317 317 314 312 315 314 311 314 317 317 316 316 317 316 315 317 317 317 317 318 317 318 318 318 320 320 320 323 329 337 337 338 340 338 337 338 341 342 341 342 340 335 336 339 339 340 342 343 341 340 339 339 338 338 338 338 337 336 335 335 336 335 335 335 334 333 333 334 335 335 333 331 329 330 332 332 332 333 332 331 330 328 329 332 334 333 332 331 332 333 332 332 333 333 333 331 331
318 317 315 313 315 313 312 314 316 316 318 319 317 314 314 316 316 317 317 318 318 317 317 318 319 318 320 321 321 333 337 337 338 340 341 342 341 339 338 339 339 339 338 337 338 340 342 342 341 340 339 338 338 338 338 337 337 336 336 336 336 335 334 333 333 333 334 334 333 333 333 332 331 330 332 334 333 331 330 330 330 330 330 332 334 334 332 330 330 331 331 331 332 333 333 333 332
314 316 315 313 314 314 314 316 315 313 313 316 317 311 312 315 315 316 316 317 316 317 317 316 318 318 318 321 321 331 338 338 338 341 343 343 341 338 337 339 341 343 340 334 334 337 340 341 341 340 339 338 339 338 337 337 337 336 336 336 335 335 334 333 333 333 333 333 333 332 333 333 332 332 332 334 333 331 331 331 331 331 332 333 334 334 333 330 329 330 331 331 331 332 333 333 332
311 314 315 315 315 313 314 314 313 309 309 315 317 311 309 312 314 316 317 317 317 317 317 317 317 317 318 319 318 328 337 338 338 340 343 343 341 340 340 342 344 343 339 334 332 332 334 338 341 340 340 339 338 338 337 337 337 336 335 335 335 335 335 334 333 333 333 333 333 332 333 333 333 333 333 333 333 332 331 331 332 333 333 334 334 334 333 331 330 330 332 331 331 332 332 332 330
311 314 316 315 315 314 315 313 311 311 312 314 315 312 310 310 313 318 318 317 318 317 318 318 317 317 318 319 317 323 337 338 337 339 344 344 343 343 343 344 344 342 340 337 332 330 332 335 339 340 339 338 337 337 337 336 337 336 336 335 335 335 334 334 333 332 332 332 332 331 332 333 333 333 334 333 332 332 332 332 333 334 334 334 334 334 333 332 331 330 331 332 332 332 332 331 331
314 315 316 315 316 316 316 314 311 312 312 310 311 312 310 309 312 317 318 315 316 317 317 318 318 318 317 320 319 320 333 337 335 339 345 345 344 345 344 344 344 341 340 337 333 333 334 335 337 340 339 337 336 336 337 336 336 336 336 335 335 335 335 334 333 332 331 331 332 332 332 333 333 334 334 333 333 333 332 333 334 334 333 333 333 333 332 333 332 330 331 333 333 332 332 333 332
315 315 315 315 315 316 316 314 311 311 312 310 310 311 309 309 311 314 316 314 315 317 318 317 318 318 320 324 325 325 330 335 336 339 344 345 345 344 345 345 343 339 338 337 333 334 335 336 338 340 338 337 336 336 337 337 337 337 336 335 336 335 335 334 333 332 331 331 331 331 332 333 333 333 334 334 334 334 334 333 333 333 333 334 334 332 332 332 331 331 331 333 333 332 332 332 332
315 315 315 314 315 315 315 314 311 310 311 311 310 311 310 310 310 312 315 316 316 318 318 321 321 323 326 328 328 329 332 335 337 338 341 343 344 344 344 344 342 339 338 336 334 335 337 338 339 340 338 338 337 336 337 337 337 337 336 336 336 333 333 334 333 332 331 331 331 331 332 333 333 334 334 334 335 334 334 334 334 334 334 334 334 332 331 331 332 331 331 332 333 333 331 331 331
315 315 314 313 313 313 312 311 311 311 311 310 309 310 310 309 310 313 316 317 319 320 322 325 327 326 327 328 326 327 331 335 335 337 341 343 343 343 344 344 342 341 339 337 336 337 337 337 339 340 339 338 338 337 337 337 336 336 336 337 336 333 333 335 333 331 332 332 331 332 332 331 332 333 334 334 334 334 334 335 335 334 334 334 334 332 331 331 332 333 332 333 333 332 331 331 330
315 314 313 312 311 311 311 310 310 311 310 310 311 311 310 309 312 315 318 321 324 325 324 325 325 327 329 329 329 329 331 334 334 336 340 342 343 343 343 343 342 342 340 337 337 337 336 337 339 340 339 338 338 338 337 337 337 337 337 336 335 333 334 335 333 331 332 332 331 332 332 331 332 333 333 333 332 333 334 335 335 335 334 334 334 333 331 331 332 333 333 332 332 332 331 331 330
315 313 311 312 311 311 312 311 311 311 311 311 312 312 310 309 314 320 323 324 325 325 325 325 327 331 332 330 330 330 331 334 334 334 336 337 340 341 341 342 343 343 340 337 337 337 336 338 339 339 339 338 338 338 337 337 337 337 336 334 332 333 333 334 334 334 333 332 331 332 333 333 333 333 332 332 332 332 331 333 334 334 334 334 334 333 332 331 331 332 332 331 331 332 331 330 330
315 315 313 312 311 311 311 310 311 313 313 313 314 315 312 311 317 323 324 325 325 326 325 328 332 332 333 331 330 330 331 333 334 334 333 332 333 334 336 338 338 337 338 338 338 336 335 338 339 339 338 338 338 338 337 337 337 337 337 334 332 332 332 333 334 333 333 332 332 333 333 333 332 331 331 331 331 331 331 331 332 332 334 334 334 334 333 332 332 331 331 330 330 331 330 329 329
315 315 313 311 311 311 310 311 313 313 313 313 313 315 314 315 322 323 323 324 326 328 329 331 331 331 332 332 332 332 333 332 333 333 331 331 331 330 330 332 331 330 331 334 336 334 334 338 339 338 338 337 338 338 338 338 337 337 337 335 332 330 332 333 333 332 332 332 332 332 332 331 331 330 331 330 330 330 330 331 331 331 332 332 333 333 332 332 332 330 330 331 330 331 331 329 328
314 313 311 312 314 313 310 312 313 313 314 314 313 314 314 316 322 323 323 325 326 329 331 332 332 329 329 331 331 332 333 332 330 330 330 330 329 328 328 328 328 328 328 330 332 333 334 337 339 338 338 338 338 338 338 337 337 336 336 335 333 332 332 332 332 332 332 332 331 331 331 331 331 330 330 330 329 329 329 329 329 330 330 331 332 333 331 331 331 330 330 331 330 330 330 329 328
313 312 312 315 316 314 311 311 312 313 314 313 312 312 311 314 319 323 326 328 329 329 330 331 331 328 327 329 327 328 331 331 329 328 327 328 328 328 328 327 327 328 329 330 332 334 335 337 338 338 337 338 338 338 337 337 337 335 335 335 333 331 331 331 331 331 332 331 331 331 331 331 331 330 330 329 329 328 328 328 328 329 330 330 330 331 330 330 331 331 331 330 329 329 329 329 329
313 313 314 316 314 313 312 312 312 314 315 315 313 310 314 319 324 327 329 331 330 329 329 331 330 327 327 328 326 327 331 331 329 328 326 327 329 330 329 327 327 327 327 328 332 335 337 337 337 337 337 337 337 337 337 336 336 335 334 334 332 330 330 330 330 331 331 332 332 331 331 330 330 329 329 328 328 328 327 327 327 328 330 330 330 329 329 329 330 331 331 330 328 329 329 328 328
315 314 315 315 313 312 313 313 312 312 313 315 313 311 321 328 329 329 330 331 330 330 330 331 329 327 327 328 328 329 329 328 328 328 327 328 328 329 328 328 327 326 326 328 330 333 336 337 337 336 336 336 336 336 336 335 335 334 333 332 331 331 331 331 331 331 331 331 331 331 330 329 328 328 327 327 327 327 327 327 327 327 328 329 329 329 329 328 329 329 331 331 330 330 330 328 327
314 313 312 312 312 313 315 315 313 312 314 316 314 317 327 329 327 329 330 331 331 330 330 329 329 328 328 328 328 328 328 327 326 327 327 327 327 327 327 326 326 325 326 328 328 329 331 333 335 336 336 336 335 336 336 335 334 333 332 331 331 331 332 332 331 331 331 331 330 329 328 327 327 327 327 326 326 326 326 326 325 326 327 327 328 329 329 328 328 328 329 331 330 330 330 330 328
314 313 312 312 312 311 312 313 312 312 314 315 314 321 329 329 327 329 329 330 331 329 329 330 329 328 328 328 327 326 326 326 325 325 326 327 328 327 327 326 325 325 325 326 327 328 328 329 333 336 336 335 335 336 336 335 334 333 332 330 330 331 331 331 331 330 330 330 329 328 327 326 327 326 326 326 326 325 324 324 324 324 325 326 326 328 328 327 327 328 328 329 329 328 328 328 328
Wind_Speed
6 6 5 7 9 10 9 6 4 3 5 7 8 9 7 3 3 2 3 4 1 3 6 5 4 3 5 7 6 10 13 9 7 4 4 6 9 16 20 20 20 20 19 17 18 19 18 17 19 21 23 23 23 22 22 23 24 24 23 22 22 22 22 22 20 18 17 17 18 17 17 16 16 15 14 14 14 13 13 13 13 13 13 13 13 14 14 14 15 15 15 15 14 13 13 13 12
7 8 8 9 10 9 4 5 5 4 6 7 9 9 3 2 1 2 2 5 5 7 4 3 4 4 4 6 7 3 13 12 10 8 7 12 15 17 18 18 18 19 18 17 17 17 16 17 18 21 23 23 23 23 23 23 24 24 23 22 22 23 23 22 19 18 17 17 18 18 17 17 17 16 15 13 13 13 13 14 13 13 13 13 13 13 13 13 14 14 14 14 14 14 13 12 12
9 12 11 9 9 7 4 4 6 5 6 8 7 3 2 1 4 5 7 7 6 5 2 4 5 4 5 5 2 4 9 10 12 10 8 14 14 14 18 16 18 19 18 17 16 17 16 17 19 21 23 23 23 23 23 23 24 24 24 23 22 24 24 22 19 18 17 18 18 18 17 17 17 16 15 13 13 12 13 15 13 12 12 12 12 12 12 12 13 13 13 14 13 13 12 12 12
9 11 12 9 6 6 5 4 6 7 7 8 4 4 3 3 10 7 6 6 4 4 4 5 3 1 2 2 5 8 9 7 11 10 7 13 13 16 19 18 18 19 18 16 16 16 15 17 20 21 22 23 23 23 24 24 25 25 24 23 23 25 23 20 19 18 17 18 19 18 17 16 16 17 16 13 12 11 13 14 13 12 12 11 11 11 11 11 11 12 12 12 12 12 11 11 11
10 11 13 10 5 4 4 5 6 7 7 8 4 6 6 7 10 5 4 3 2 4 6 4 3 5 7 9 6 5 6 7 10 12 11 14 16 17 18 20 18 17 18 17 16 15 15 19 21 21 22 23 23 24 24 24 25 25 24 24 25 24 21 18 18 17 17 19 19 18 16 15 16 18 16 15 13 11 14 14 12 12 12 11 11 10 10 10 10 10 10 10 11 11 11 10 10
11 12 11 9 6 5 4 6 6 8 10 10 5 6 8 7 8 5 2 4 2 4 5 5 7 5 10 8 8 7 5 6 9 13 16 16 18 17 16 18 17 17 18 18 16 14 16 20 21 22 23 23 24 24 24 23 24 25 24 24 25 22 19 18 18 17 17 19 18 17 16 15 16 18 17 15 13 12 14 14 12 12 12 11 10 10 10 9 8 9 9 9 10 10 11 10 10
12 9 7 8 5 4 6 7 7 8 7 9 6 7 8 6 6 3 4 3 1 4 5 6 8 4 9 6 9 9 9 7 9 13 18 18 19 18 15 15 17 18 18 17 16 15 18 21 22 23 24 24 24 24 23 23 23 23 23 24 24 21 19 18 17 16 17 18 18 17 15 14 15 17 17 15 14 13 14 13 13 13 12 11 10 9 9 9 8 9 8 8 9 9 10 11 11
13 8 4 5 5 5 6 7 8 9 4 3 4 9 7 4 4 3 5 4 2 1 4 5 7 3 7 10 8 7 13 13 15 19 20 20 19 16 15 16 18 19 17 18 17 17 20 22 22 23 24 24 24 24 23 23 23 22 22 22 21 20 18 17 16 16 17 18 18 16 15 15 16 17 17 16 15 14 13 13 13 13 11 10 10 9 9 9 8 8 7 7 8 8 9 12 15
12 8 5 6 6 5 7 8 8 10 5 2 6 9 5 3 4 4 6 7 4 4 6 5 5 3 9 14 10 7 13 15 19 21 20 20 19 17 16 16 18 18 19 20 18 17 20 22 22 23 24 24 24 24 23 23 23 22 22 21 19 18 17 15 15 16 17 17 17 17 16 16 16 17 17 16 15 14 13 13 13 13 11 10 9 9 9 8 7 6 6 6 7 8 9 12 16
7 7 5 5 6 7 8 8 7 10 4 6 7 7 5 5 5 5 6 8 6 5 5 4 5 7 14 13 8 5 10 15 17 19 19 19 18 17 17 18 17 17 19 20 18 17 19 21 22 23 23 23 23 24 23 23 23 22 21 20 19 18 16 15 16 16 16 17 17 17 17 16 15 16 17 16 16 14 12 12 13 13 11 10 9 8 8 7 6 5 5 5 6 7 8 12 15
5 6 5 5 6 7 7 7 9 7 4 6 4 7 5 4 4 6 6 8 8 5 3 3 5 11 17 9 5 5 10 15 16 19 20 19 18 18 19 19 18 18 18 17 18 18 18 20 21 23 23 23 23 23 23 23 23 22 21 21 19 17 17 17 17 16 16 17 16 16 17 15 13 15 16 16 16 14 12 12 13 12 10 10 9 8 7 5 5 4 5 6 6 7 8 10 14
5 6 5 6 6 6 8 8 8 1 7 2 2 7 4 3 2 6 6 8 7 4 4 2 4 12 14 7 5 6 11 13 15 19 19 18 17 18 19 19 18 19 19 17 18 18 19 19 20 21 22 23 23 24 23 23 23 22 22 20 19 18 19 19 17 16 16 16 16 16 16 14 13 14 15 15 15 14 12 12 12 11 10 10 8 7 6 4 4 5 6 6 7 8 9 10 12
6 6 5 7 6 8 9 9 8 2 0 2 6 6 2 4 2 4 7 10 8 3 2 9 13 13 8 6 7 6 9 9 14 18 18 18 17 18 19 19 19 19 20 19 18 19 19 19 18 19 20 21 22 22 23 23 22 21 21 19 19 20 20 18 16 16 16 16 16 16 15 14 15 14 14 15 15 14 12 11 10 10 9 8 7 5 4 5 6 6 6 6 8 9 10 10 11
6 6 6 6 6 9 9 8 7 5 1 7 7 4 1 3 4 4 6 11 8 2 6 14 14 11 7 6 6 4 7 9 14 18 17 17 17 18 18 19 20 19 19 19 18 18 19 18 18 18 19 19 20 21 21 22 22 21 20 20 20 20 18 17 16 16 16 16 16 16 16 15 16 15 14 15 15 14 12 11 10 9 8 7 6 4 4 6 7 6 6 7 9 10 10 11 12
7 5 6 6 7 8 7 8 7 7 3 10 3 5 2 4 3 4 7 9 7 4 7 9 7 6 6 5 5 6 11 15 16 17 17 17 17 17 19 19 19 18 19 19 18 17 18 18 18 19 19 18 19 19 20 21 21 20 20 20 20 18 17 16 16 16 16 15 15 15 16 16 16 15 15 15 15 14 13 11 9 8 7 7 6 5 5 7 7 6 7 8 9 10 11 14 16
6 5 5 5 7 7 7 8 6 6 5 9 2 5 3 3 3 3 4 6 7 4 3 5 7 5 5 4 8 13 17 19 17 18 18 18 18 17 18 18 18 18 20 21 20 18 17 18 18 19 20 20 20 19 19 21 21 20 20 20 19 17 16 16 15 15 15 14 13 14 15 16 16 15 14 14 14 14 13 12 10 9 8 7 6 5 6 7 6 6 8 8 9 10 12 16 17
5 5 6 6 7 9 7 3 2 1 7 8 5 7 4 2 2 2 2 6 7 2 5 10 10 7 3 3 14 20 20 19 18 19 18 18 18 17 17 17 17 18 21 22 21 21 19 19 19 20 21 21 21 20 19 20 20 20 19 19 18 17 16 15 15 14 14 13 13 13 13 14 16 15 13 13 13 14 14 13 12 10 9 8 6 6 7 7 7 6 8 8 9 10 12 15 15
6 5 6 6 7 7 4 8 6 5 8 6 6 6 4 3 4 4 1 6 5 2 9 14 11 9 6 9 19 22 20 20 19 19 18 17 16 16 16 17 17 18 20 21 21 22 22 21 20 21 21 22 21 20 20 20 21 19 18 18 17 16 15 14 14 13 13 13 13 12 11 13 15 15 15 14 13 14 14 13 12 11 11 9 7 7 7 7 7 7 7 7 9 10 12 14 13
7 6 6 8 7 4 7 7 5 6 6 4 3 3 3 4 4 5 5 6 6 2 10 13 8 7 7 13 18 20 20 19 19 20 19 17 16 15 15 16 17 18 20 21 22 24 23 23 23 22 22 23 22 21 21 21 21 19 18 18 16 15 15 13 13 12 13 13 14 14 13 14 14 14 15 13 12 13 13 12 11 11 10 10 9 8 8 8 7 6 6 7 8 10 11 12 11
7 6 6 9 4 7 6 4 6 5 5 5 4 4 3 7 4 4 7 8 5 7 10 9 6 4 8 11 13 17 18 19 19 19 18 17 16 16 16 17 17 18 21 21 22 23 23 23 23 22 22 24 23 21 21 21 22 20 18 18 16 16 15 13 13 12 13 14 15 16 14 14 14 14 13 13 12 13 12 11 10 9 8 10 10 9 9 10 8 7 7 6 8 10 9 7 7
7 7 9 10 4 7 3 4 7 6 6 6 6 4 5 8 6 5 8 9 3 9 10 10 10 8 11 11 12 15 15 17 17 15 15 16 15 16 17 17 18 18 20 20 22 23 21 23 23 21 23 24 23 21 21 21 21 19 17 18 16 17 16 14 14 14 15 15 17 17 14 14 15 15 14 14 14 13 12 11 10 9 7 8 9 9 10 12 10 8 7 7 8 9 8 9 8
6 7 11 13 8 7 3 5 5 5 6 8 8 8 7 7 5 9 10 9 3 9 10 14 14 11 12 10 11 14 14 13 11 13 15 14 14 14 15 16 17 17 18 18 18 16 13 17 16 14 19 22 19 18 20 21 19 17 17 17 17 16 16 16 16 15 15 16 18 17 15 16 17 16 15 14 14 12 11 11 10 8 6 7 9 9 9 11 11 8 8 7 8 9 9 11 12
7 7 10 13 9 8 3 2 2 3 6 8 8 8 7 7 7 10 7 10 3 10 10 14 16 13 12 11 11 13 12 8 6 11 15 15 14 14 16 16 15 16 17 13 9 9 10 14 13 9 12 12 9 12 18 20 18 17 17 19 19 18 17 18 17 15 15 15 16 16 15 17 18 17 16 15 15 13 11 10 9 7 7 8 10 9 8 10 12 9 9 9 8 9 9 10 12
9 8 10 11 7 8 8 5 2 3 7 6 8 7 7 7 9 9 4 9 5 8 9 14 17 14 14 13 12 12 10 10 12 14 14 14 15 15 15 14 15 15 11 11 9 10 15 18 16 12 12 7 8 10 15 17 15 15 17 19 20 19 17 16 17 17 16 15 15 15 15 16 18 17 16 15 15 15 13 11 10 9 9 9 10 11 10 10 12 11 11 11 10 11 11 10 11
11 10 11 10 7 7 8 7 5 7 7 6 9 8 10 10 10 12 5 8 8 4 8 16 15 11 13 11 11 10 9 11 13 13 14 14 14 14 14 14 15 11 15 15 10 15 17 17 14 12 14 13 13 13 15 14 12 12 15 19 17 16 15 12 15 18 18 15 14 16 16 17 19 18 17 15 15 16 14 13 13 12 11 10 10 10 11 11 11 12 11 12 11 11 13 11 11
8 11 11 10 10 9 7 8 8 8 6 6 10 10 11 10 9 11 9 13 9 3 6 15 16 10 8 8 9 8 9 10 8 11 14 13 14 14 14 15 13 14 19 14 14 16 16 16 14 12 14 15 16 17 18 14 12 11 12 17 15 14 14 11 13 16 17 16 15 17 18 18 20 19 19 17 16 16 14 14 13 12 10 10 10 9 11 11 11 12 11 11 10 12 13 10 10
4 8 10 10 11 10 8 8 8 8 7 8 10 10 11 10 9 8 10 15 7 4 6 11 15 11 6 7 9 8 8 9 10 13 14 11 13 14 14 14 13 21 18 12 13 16 17 16 15 14 14 14 16 19 19 16 15 14 13 15 15 15 16 13 13 13 15 17 16 18 19 19 20 20 19 17 16 15 13 12 8 8 9 9 10 10 11 11 11 11 9 11 10 10 11 9 9
6 7 8 10 11 10 11 10 8 7 7 9 10 11 11 10 10 9 13 13 7 5 8 8 11 13 8 7 8 7 6 10 15 16 13 11 13 13 15 13 17 23 15 12 13 16 16 15 15 18 15 14 19 20 17 16 16 16 15 15 15 18 18 16 15 14 16 18 18 20 20 20 20 19 19 17 15 14 12 10 7 8 10 9 9 9 9 9 10 9 9 11 7 6 11 12 10
10 8 7 11 12 11 13 12 11 9 8 10 9 9 10 11 12 12 17 14 9 8 9 6 6 11 8 8 6 6 5 8 13 14 14 13 12 14 14 12 20 19 12 11 11 15 14 12 14 17 16 15 20 19 17 17 18 18 18 17 16 18 19 16 15 17 19 19 20 21 20 20 20 19 18 16 14 12 10 9 9 10 10 10 10 9 9 9 9 9 10 9 4 6 13 14 13
9 9 8 9 9 10 14 14 13 11 9 8 4 5 8 11 16 16 17 16 10 9 8 6 9 8 8 7 5 3 2 2 8 11 12 14 11 12 12 13 20 13 11 12 12 15 13 11 13 17 17 15 18 19 18 19 19 20 19 18 15 16 17 16 15 17 18 20 21 22 21 20 20 18 17 16 14 11 10 10 11 10 11 11 10 10 9 8 8 8 8 6 5 9 11 12 12
7 9 8 7 6 9 14 15 13 11 10 7 4 5 8 11 16 18 19 17 11 9 8 10 11 8 8 7 6 3 2 5 5 20 14 12 11 11 11 19 23 13 13 15 14 13 13 13 12 17 18 15 18 20 17 16 17 18 18 18 16 14 15 16 18 19 18 20 21 21 21 20 18 15 14 16 15 13 13 12 12 12 11 9 8 8 9 8 6 7 7 4 6 9 10 10 9
7 7 7 7 7 9 8 13 13 10 7 8 7 6 7 12 15 14 21 15 10 9 9 12 12 10 9 7 7 5 3 6 6 20 22 11 10 10 10 21 21 14 16 16 15 14 14 15 13 16 17 13 16 19 16 14 15 16 17 19 19 18 17 17 20 21 20 21 22 21 21 20 19 16 15 16 14 14 15 14 14 14 11 8 7 9 10 8 7 8 7 5 6 9 11 11 8
7 7 7 7 9 7 4 12 14 12 8 9 10 7 8 10 9 2 10 11 10 10 8 13 12 10 9 7 7 6 5 5 10 17 19 13 10 10 10 22 21 14 16 15 16 18 16 16 17 16 15 12 13 16 16 15 15 16 17 17 19 20 19 17 19 22 22 23 24 24 22 20 20 19 18 16 13 13 13 12 13 13 11 8 8 9 8 6 7 7 7 5 6 9 13 11 9
6 7 7 8 10 8 5 12 14 13 8 7 11 8 11 10 4 4 7 7 9 11 8 13 13 11 9 8 7 6 6 6 7 11 12 11 11 13 11 22 25 17 14 15 16 18 17 17 17 14 13 12 11 13 14 14 15 15 15 16 17 17 17 16 19 22 23 25 25 24 23 22 21 20 19 16 13 12 11 11 11 10 10 9 10 9 6 6 6 5 7 6 5 10 12 11 10
8 9 7 7 10 11 6 8 11 10 8 6 9 9 10 12 9 6 9 8 9 10 7 10 12 12 11 7 6 3 4 6 6 8 11 13 16 14 12 20 26 20 15 16 16 18 17 17 16 13 13 12 12 13 13 14 14 13 15 15 14 15 16 16 18 20 22 25 24 23 22 22 21 19 18 16 14 11 10 11 10 9 10 10 10 8 4 6 6 4 6 7 6 10 10 10 12
12 9 7 8 8 9 9 6 11 9 7 6 8 7 8 10 12 8 8 10 11 10 9 9 10 13 12 8 6 4 4 5 4 6 11 15 18 15 11 17 22 20 18 17 17 20 19 18 19 16 14 13 13 14 14 13 13 14 16 15 13 15 17 16 18 19 21 23 22 20 20 21 20 19 17 15 14 13 12 12 9 9 11 11 10 8 5 6 8 7 7 8 8 10 10 10 13
14 10 8 10 8 9 11 8 13 9 6 6 6 7 8 9 12 12 9 9 10 11 9 9 9 11 11 11 8 8 7 4 5 3 14 13 16 15 11 16 22 19 17 17 17 19 19 18 20 19 16 15 14 14 14 13 13 14 15 15 14 15 16 16 17 17 20 22 20 18 20 20 19 18 17 16 15 15 14 13 12 12 12 12 11 8 5 6 9 9 7 8 8 10 11 11 14
11 8 8 9 8 6 8 6 11 8 4 4 4 9 12 10 11 13 11 11 12 9 9 9 11 10 8 13 13 11 7 3 4 3 8 11 18 12 8 13 21 20 17 18 17 16 18 19 20 20 19 16 15 15 15 14 14 13 14 15 14 14 15 15 17 18 20 22 19 18 21 21 20 19 18 18 16 14 15 15 14 13 11 11 11 8 6 7 11 10 9 10 10 10 12 12 14
8 5 9 8 7 5 8 8 7 6 3 3 5 9 11 12 12 13 12 11 13 9 8 9 11 12 10 11 14 14 11 9 7 4 5 13 19 8 10 10 16 18 15 16 17 16 18 20 20 20 20 17 16 15 15 15 13 12 12 13 13 12 13 14 16 18 20 20 19 20 21 21 20 19 18 17 15 13 15 17 15 13 11 10 9 8 9 8 13 10 11 12 12 11 11 12 15
5 5 8 8 8 7 6 8 9 8 4 1 4 8 9 11 11 11 10 9 11 14 11 11 12 13 11 12 11 14 17 14 14 13 11 14 11 9 14 15 16 18 18 17 17 17 18 19 20 21 20 18 17 16 15 15 14 12 11 12 12 11 12 13 14 16 18 18 19 20 20 20 18 18 17 14 13 13 15 16 14 12 11 10 7 6 8 9 12 9 10 12 14 14 11 12 14
6 8 9 9 11 11 10 9 10 8 4 5 3 8 7 9 11 10 9 9 12 15 15 12 12 12 11 12 12 10 18 15 16 19 18 14 10 10 15 18 18 20 22 19 15 14 16 18 19 20 21 19 18 17 16 16 16 15 14 12 12 11 11 13 14 15 16 16 19 21 21 20 17 16 15 13 13 13 13 13 11 10 11 9 6 5 8 11 10 10 12 13 15 15 13 12 12
8 10 12 13 13 14 13 12 10 9 6 7 6 7 5 9 14 14 12 13 14 14 16 16 12 12 12 10 11 9 17 14 13 16 15 13 12 13 14 15 16 15 15 13 9 9 11 16 19 19 22 21 19 18 17 18 18 17 17 15 13 13 12 11 13 14 16 16 19 21 20 19 17 16 15 14 14 12 12 12 11 10 10 8 7 6 7 11 12 11 12 14 15 15 15 14 14
7 8 12 15 15 14 15 14 10 7 7 5 7 8 5 7 9 10 11 13 16 15 15 16 13 11 11 10 10 8 16 13 10 13 14 13 14 14 14 14 14 10 11 12 13 12 11 14 19 20 21 22 20 20 19 19 19 18 18 16 14 14 13 12 12 14 16 17 18 18 17 16 15 14 13 13 13 11 11 12 11 9 8 7 8 8 6 8 12 12 11 13 15 15 16 16 16
6 8 11 11 12 11 11 13 10 7 7 8 11 10 6 7 7 8 12 13 12 10 9 13 14 12 11 11 11 9 15 15 12 14 16 15 15 16 15 16 14 12 15 19 23 21 16 15 18 20 21 22 21 21 20 19 19 19 17 16 15 14 13 13 13 14 15 15 14 13 13 13 12 10 10 11 11 9 10 12 11 10 11 9 8 8 6 7 11 13 12 12 14 16 17 16 17
8 11 12 7 5 8 9 9 8 7 8 8 10 10 8 8 7 8 12 13 11 9 10 13 11 10 9 9 11 10 11 18 18 16 17 16 16 18 19 18 17 18 20 23 25 26 23 19 18 19 21 21 21 21 21 19 18 18 18 17 16 14 13 13 14 14 13 12 12 11 11 12 11 10 10 11 10 8 9 10 10 10 11 9 7 8 7 8 10 12 13 13 14 17 17 15 17
8 13 13 5 4 8 9 7 7 7 8 9 9 10 8 6 6 7 7 8 10 9 9 10 11 8 3 6 8 7 4 11 16 12 11 13 15 18 20 20 20 22 23 25 25 23 24 23 21 20 20 20 21 21 21 19 18 18 17 18 17 15 15 15 14 14 13 13 12 11 12 12 12 11 12 11 10 9 8 8 8 9 9 8 8 8 8 9 10 12 13 13 13 15 16 17 18
7 10 10 5 5 7 8 6 7 6 7 10 11 12 10 7 6 5 5 6 7 8 5 2 4 7 9 11 11 14 14 9 10 8 6 9 12 15 18 18 19 21 22 23 22 19 21 23 22 21 19 19 22 22 21 20 18 18 17 17 17 17 18 16 15 14 14 15 13 10 8 8 9 10 10 10 9 9 9 8 8 8 9 9 8 7 8 9 10 12 14 14 13 14 15 16 16
8 7 5 5 5 6 6 6 7 7 7 10 12 14 13 8 6 6 8 7 3 3 5 8 9 11 12 10 11 13 11 10 11 8 8 10 10 11 14 15 16 18 22 24 22 20 20 21 22 21 19 20 22 22 21 19 18 18 17 16 17 18 18 17 18 17 16 15 14 10 7 7 9 10 9 9 8 8 8 8 8 8 8 8 8 7 7 9 10 13 15 15 15 15 15 16 15
8 7 6 6 5 6 6 6 6 7 8 9 11 13 11 7 7 8 7 4 8 9 9 11 12 11 12 11 12 12 8 8 7 4 6 7 7 9 11 13 15 16 21 24 24 23 22 21 22 22 20 21 22 22 22 20 18 18 17 17 18 19 20 18 19 21 18 14 14 13 14 14 13 12 11 10 9 8 7 7 7 8 8 8 7 6 7 9 11 12 14 15 15 15 15 17 17
8 8 7 6 6 6 6 6 6 7 7 8 10 11 8 6 5 3 5 9 11 11 11 11 12 12 12 11 10 11 9 7 4 2 2 3 3 2 4 10 13 14 20 24 23 23 23 23 23 22 21 22 21 22 22 20 19 18 17 18 19 20 21 19 19 22 20 17 17 16 16 16 14 13 11 10 9 8 6 6 5 5 6 6 6 6 7 9 10 11 12 14 16 14 13 15 17
8 8 8 8 6 6 6 5 5 4 5 7 8 6 6 5 2 4 8 13 12 11 12 12 13 12 10 8 9 10 9 7 3 5 7 7 9 10 10 6 2 4 12 18 22 23 23 23 23 21 22 22 22 23 23 21 20 18 16 18 18 17 19 19 17 18 18 18 18 16 15 14 13 12 11 9 9 8 7 7 6 5 5 5 6 6 6 7 8 9 11 13 15 13 12 14 15
7 8 9 8 7 7 5 4 5 3 4 6 5 3 4 1 7 9 9 13 13 12 13 13 14 13 11 9 10 10 9 7 5 6 7 4 5 8 13 16 13 8 13 12 16 21 23 23 22 21 21 22 23 25 24 23 21 19 17 16 17 16 17 17 15 15 15 15 16 14 14 14 13 12 12 10 9 8 8 7 7 8 5 4 6 6 6 8 9 10 11 12 14 13 12 13 17
4 7 8 7 9 9 5 4 6 5 4 5 4 4 5 2 6 10 10 13 12 11 13 13 13 13 12 10 10 11 10 8 6 5 4 1 3 5 6 10 11 11 20 19 16 21 22 22 20 20 21 19 20 24 26 26 23 20 18 17 16 15 15 15 15 15 15 15 15 14 13 13 13 12 11 10 9 8 8 7 7 9 7 5 5 5 6 7 8 10 11 12 12 12 11 11 16
6 5 6 7 9 9 6 5 5 6 7 5 5 8 6 3 1 7 10 11 9 10 12 12 12 13 12 10 9 11 11 8 8 7 6 4 3 4 3 5 7 10 19 22 20 21 20 19 19 21 21 19 20 22 25 27 25 22 20 18 17 15 14 15 16 17 16 15 14 13 14 13 12 12 11 9 8 7 7 7 7 9 9 7 6 6 6 6 6 7 9 11 12 14 12 11 12
11 7 5 5 6 6 5 4 5 6 7 4 6 10 3 3 3 6 9 8 8 10 11 11 11 10 9 8 9 10 10 10 9 8 6 4 3 4 5 7 8 7 14 21 20 19 19 19 20 21 21 20 21 21 23 25 26 25 22 20 19 16 15 16 17 17 16 15 15 13 13 13 12 11 10 9 8 7 7 7 7 8 9 8 7 8 7 5 6 6 7 9 13 15 15 14 11
12 10 8 6 5 5 4 3 4 6 6 5 7 7 1 6 6 6 7 7 9 9 8 10 10 6 5 6 8 9 9 9 9 8 6 4 3 6 6 5 7 7 13 20 20 18 18 20 21 22 22 22 23 21 22 24 25 25 24 22 20 18 16 17 17 17 16 15 15 14 14 13 12 11 10 9 8 7 7 7 7 8 8 8 7 8 7 6 5 5 6 8 11 13 15 16 14
8 8 8 8 5 5 5 4 4 5 5 5 5 2 2 5 6 7 6 8 10 9 8 7 8 6 4 6 8 7 7 8 8 8 8 5 4 6 6 6 5 6 10 13 17 15 12 15 18 22 22 22 25 24 22 25 25 24 24 23 21 20 19 18 17 17 16 16 15 15 14 13 12 11 10 9 8 7 7 6 7 7 8 8 8 7 7 7 6 5 6 8 9 10 11 13 16
7 7 6 8 6 6 8 6 6 6 5 5 4 1 2 3 4 5 7 9 11 11 9 7 9 9 7 7 9 7 6 8 9 9 10 8 7 7 7 9 8 7 9 11 16 16 12 16 17 21 25 24 25 24 24 28 27 24 26 25 23 23 21 20 19 18 17 17 16 15 14 13 12 11 10 9 8 7 6 6 6 6 7 7 8 8 7 7 7 5 6 8 7 8 9 10 13
Wind_Direction
245 256 260 257 249 263 261 227 245 213 227 258 249 251 247 302 14 130 137 89 1 60 47 2 7 324 283 306 323 62 58 37 33 16 72 126 139 111 109 117 119 121 127 138 145 146 149 154 160 165 168 169 169 168 167 168 166 164 161 158 155 154 154 152 149 147 143 138 138 135 130 127 126 121 117 116 115 113 114 113 112 112 109 105 101 97 92 89 83 81 82 82 85 87 89 90 97
247 256 247 251 250 256 259 208 248 238 218 248 248 246 226 87 253 257 59 72 54 62 50 336 318 287 268 291 279 81 69 65 74 76 94 121 119 114 122 124 123 126 131 136 137 139 144 154 162 165 169 170 169 169 168 168 166 165 162 159 157 155 154 152 151 148 142 139 140 139 133 131 129 125 120 120 121 120 119 116 117 117 112 108 106 102 96 91 85 82 80 79 81 84 88 89 101
251 265 253 236 235 241 264 226 238 256 237 251 252 214 175 183 69 50 48 57 41 38 3 288 276 265 243 230 237 85 81 77 87 89 112 127 120 119 128 128 129 129 131 135 134 136 142 155 163 164 168 169 170 170 169 168 165 164 162 160 158 156 154 154 153 150 145 144 143 141 136 134 135 132 125 126 128 126 123 121 123 120 116 114 111 106 101 94 90 87 82 80 80 81 85 89 105
250 268 263 241 228 223 243 242 233 257 258 259 274 72 67 54 66 55 39 45 17 337 295 287 270 211 308 25 65 80 84 77 97 111 122 126 128 131 132 130 131 128 131 137 135 137 147 159 162 163 166 169 169 168 168 166 164 164 163 161 159 157 154 153 152 150 149 148 146 142 140 138 142 139 132 134 132 128 128 127 126 122 122 121 117 110 103 99 93 88 82 81 80 79 84 90 106
252 264 262 250 250 243 242 251 237 247 253 268 290 68 47 50 65 50 24 7 306 277 258 274 261 132 77 42 41 74 86 93 99 101 105 118 129 137 135 130 133 132 134 136 135 136 148 160 161 162 165 167 165 165 166 164 164 163 162 162 159 158 153 151 151 150 150 150 148 144 138 135 141 144 139 137 136 134 131 128 128 128 128 126 122 114 106 101 96 89 82 80 79 78 83 94 107
249 258 249 239 267 296 274 252 239 240 244 263 278 84 66 48 47 30 320 267 245 248 242 260 261 123 89 58 60 62 61 101 97 96 112 124 128 135 140 134 134 135 137 136 134 136 150 162 161 162 163 164 164 163 164 163 164 163 162 162 160 158 152 152 152 148 148 150 150 142 135 131 136 146 146 140 143 143 132 132 136 132 131 133 129 124 116 106 98 91 84 81 81 77 79 95 108
244 253 222 219 254 269 255 253 247 252 237 244 278 62 78 63 38 350 307 291 193 209 210 233 249 115 105 103 80 64 50 80 107 111 124 129 128 133 141 141 137 138 139 136 135 141 154 162 161 162 163 163 164 163 163 162 163 162 162 161 161 159 154 155 153 146 144 147 148 140 136 135 135 146 151 147 150 145 136 143 145 139 143 145 135 127 116 106 101 95 93 89 85 80 76 92 110
243 257 231 226 240 230 237 253 252 260 251 230 336 44 66 46 18 312 316 301 278 239 192 210 241 205 117 106 91 78 67 79 108 117 127 129 133 140 141 141 138 137 136 136 141 147 157 161 161 163 163 164 164 162 162 162 162 160 160 160 162 161 157 156 154 147 141 143 144 140 141 139 135 143 151 151 150 146 148 156 152 146 149 143 129 122 115 113 115 108 106 98 90 86 82 98 115
237 244 250 245 246 246 240 249 252 254 251 108 57 54 54 7 347 300 297 276 273 283 233 209 221 177 99 90 83 83 85 95 115 124 132 134 139 144 139 138 136 134 130 138 147 149 157 161 161 161 163 165 164 163 163 163 162 159 160 160 161 160 156 156 155 149 143 143 143 144 145 144 141 143 148 152 151 152 160 165 159 150 145 138 130 126 125 126 123 116 115 104 96 96 95 109 122
226 230 244 256 251 255 248 246 247 247 231 92 80 68 40 357 345 299 281 276 274 276 241 209 216 130 95 89 86 81 104 115 126 133 138 140 143 143 139 135 136 134 127 138 146 145 156 160 161 162 163 164 164 164 164 163 161 160 162 161 159 156 154 154 152 147 144 143 144 146 148 149 148 149 152 156 159 161 166 168 159 150 146 143 136 131 132 132 126 126 125 103 98 108 108 117 127
227 223 230 262 255 254 255 247 243 226 124 73 59 77 45 343 333 294 270 271 273 276 245 223 226 120 99 89 96 117 127 130 136 140 143 145 144 140 139 135 137 138 128 135 142 145 156 158 160 162 163 163 164 164 164 164 162 162 161 161 158 154 154 154 150 145 146 147 147 148 150 152 152 155 161 162 162 164 164 162 154 152 150 144 138 133 131 131 133 129 117 100 99 112 113 115 127
245 229 214 248 253 258 262 264 268 171 105 93 98 88 43 313 306 297 294 288 283 267 241 152 102 101 103 103 106 132 134 136 141 142 147 147 144 139 139 139 137 136 133 139 143 149 154 156 159 161 163 163 164 164 165 165 164 163 161 161 158 156 157 155 154 152 153 153 150 151 154 157 154 156 164 164 163 166 165 157 152 155 151 142 140 133 125 124 131 119 107 105 106 111 110 109 125
247 249 236 248 260 271 272 280 293 314 205 105 103 94 355 311 340 329 320 301 289 268 4 80 91 85 93 116 113 130 128 137 144 144 149 146 144 139 139 142 139 135 139 144 146 150 151 155 158 160 165 164 165 166 166 166 164 164 163 163 160 159 158 158 158 157 160 159 154 154 157 160 160 163 168 166 165 171 172 163 152 152 151 146 142 138 129 126 127 119 117 117 111 111 107 104 120
238 255 263 271 278 275 279 283 290 286 294 87 93 90 7 308 14 340 294 277 270 206 65 74 94 91 92 115 119 139 139 159 157 149 150 144 144 142 140 143 142 141 144 145 145 148 150 154 155 161 166 162 165 166 166 167 165 165 165 164 162 161 160 160 160 159 163 164 160 158 160 164 166 170 171 169 170 174 177 174 164 157 158 158 157 156 142 136 131 122 127 126 115 110 104 102 114
241 263 267 276 278 269 274 268 276 285 63 84 70 58 357 295 49 309 275 276 304 37 71 74 79 90 128 147 148 162 160 169 163 153 150 144 148 145 142 146 147 149 148 145 144 149 152 153 154 160 163 161 164 165 167 169 167 166 166 166 164 163 163 163 162 161 164 166 166 164 164 168 173 177 175 176 176 176 181 183 181 178 171 173 181 165 148 148 136 124 131 133 122 111 105 105 111
243 271 271 264 265 261 259 249 252 265 85 80 38 51 318 281 72 301 307 295 305 7 30 59 51 81 148 163 143 155 160 164 159 152 151 147 150 146 145 151 154 153 151 149 148 153 155 155 158 160 161 163 163 162 169 171 170 169 167 168 167 166 164 165 166 164 166 167 169 168 167 170 175 179 178 182 183 181 185 188 192 196 187 189 193 166 155 155 142 131 135 139 132 116 109 110 114
237 247 260 258 254 251 261 280 295 263 80 68 38 40 325 311 31 329 7 275 265 347 55 62 42 63 132 139 132 148 155 159 157 154 154 153 154 152 153 158 160 157 153 154 155 158 160 161 164 164 164 164 162 161 166 168 169 168 166 168 166 166 167 167 167 164 167 169 171 171 171 172 173 174 172 175 180 182 188 195 198 202 201 202 197 170 162 162 156 140 131 142 143 125 115 116 118
242 232 242 249 244 252 340 23 15 26 57 47 36 33 327 339 2 5 350 235 228 14 65 67 34 39 87 123 133 147 155 159 161 160 160 157 160 161 160 164 166 162 159 161 163 164 164 168 170 168 167 164 161 159 161 164 166 164 165 167 165 167 168 168 167 166 170 172 172 171 171 174 172 169 168 168 173 180 187 194 198 205 208 205 197 176 170 175 167 145 133 144 149 137 124 122 122
237 238 235 243 253 317 16 21 1 19 34 19 20 35 345 325 346 342 300 240 205 139 78 72 48 46 97 127 138 150 158 163 166 166 164 164 168 165 164 170 171 168 167 168 170 172 170 172 174 171 169 165 161 158 158 163 163 163 165 165 164 166 167 167 165 165 170 172 170 170 171 172 171 167 165 166 168 173 179 185 191 202 205 199 195 184 179 182 173 154 145 145 153 149 133 127 126
226 239 243 237 272 358 4 1 3 7 356 347 339 25 345 289 326 332 303 297 249 148 116 106 115 137 136 139 148 156 164 170 173 171 167 170 173 166 169 176 175 173 173 172 171 175 175 173 175 173 169 165 161 157 156 162 162 162 165 164 163 165 165 162 161 164 169 171 172 174 175 170 169 165 161 161 160 162 166 173 182 186 189 190 190 188 182 180 177 166 162 161 163 156 144 144 143
213 222 246 248 315 351 352 25 4 350 338 330 308 334 302 296 353 314 290 304 289 128 136 137 144 171 155 159 164 165 175 176 176 176 171 174 176 171 174 179 178 176 177 175 172 176 180 175 173 174 171 166 164 159 153 157 160 160 163 161 162 165 163 158 161 167 171 175 178 180 179 173 169 168 167 163 157 156 161 169 178 177 183 193 189 188 182 178 177 175 181 176 162 161 167 177 182
232 231 250 265 301 322 13 48 359 352 328 303 283 282 291 322 339 283 282 293 315 115 142 140 153 174 155 172 172 171 182 177 180 181 179 179 178 174 174 183 180 175 177 178 173 169 167 165 169 172 170 168 165 157 148 153 159 160 162 160 162 166 166 164 164 169 176 180 181 182 180 172 169 170 172 163 154 157 164 170 175 170 175 194 186 181 184 184 179 181 199 185 163 176 190 189 189
242 243 248 264 275 275 298 12 4 1 303 288 283 283 306 321 287 276 278 278 317 107 146 145 154 164 153 175 175 181 176 160 208 201 189 180 178 178 176 183 178 178 178 164 136 122 134 157 169 163 160 162 139 127 139 155 163 156 155 160 165 170 169 167 169 174 181 181 176 181 182 174 171 172 172 164 156 159 166 170 174 168 171 188 183 178 192 193 183 185 200 194 182 192 202 197 193
236 251 252 260 268 265 278 302 332 300 278 276 281 289 293 280 269 278 274 276 297 116 150 139 146 157 156 173 177 185 160 157 211 211 198 184 184 184 178 181 180 181 154 107 98 140 162 168 172 164 151 130 92 112 141 155 161 154 151 160 168 172 173 169 173 183 186 182 178 184 187 179 172 170 171 170 163 163 168 174 181 184 186 193 191 191 197 195 192 192 199 201 196 203 210 206 200
231 247 258 265 276 269 272 283 278 263 264 267 267 268 265 259 266 276 288 279 271 144 132 126 135 152 154 169 175 175 159 176 206 211 205 190 188 188 179 184 186 161 101 100 149 173 174 166 160 157 149 125 112 137 154 155 160 160 154 161 167 170 174 165 168 185 188 183 181 184 187 180 173 170 172 175 173 172 174 180 183 187 196 199 196 200 196 194 202 199 205 207 198 210 217 212 210
230 240 249 257 263 256 249 254 256 255 253 256 257 254 253 250 255 267 270 261 251 128 132 132 131 142 157 166 166 172 176 185 200 218 217 194 190 191 184 190 176 124 99 116 162 171 172 163 147 145 159 149 135 145 157 166 167 164 162 166 166 164 171 160 161 184 192 189 180 177 183 183 178 174 174 176 177 178 179 184 181 181 195 197 192 201 197 195 204 201 208 208 201 218 217 205 204
247 248 253 261 266 265 260 253 252 256 255 254 256 260 258 248 243 247 250 248 222 151 201 165 137 135 173 171 161 184 187 187 194 216 222 196 196 194 187 193 145 113 117 132 151 166 166 156 148 148 169 167 147 143 153 172 171 166 171 169 167 166 170 165 166 185 193 193 182 175 183 186 180 173 174 177 178 180 179 179 177 182 194 196 196 203 202 195 198 203 205 204 209 214 200 187 187
264 265 273 270 269 269 263 260 256 250 255 254 252 260 260 250 245 242 252 243 181 190 229 201 153 134 168 182 167 186 188 199 198 205 213 196 197 194 194 184 117 107 135 157 152 165 155 144 156 163 171 157 139 139 150 173 172 169 176 172 167 170 176 173 172 183 187 188 181 176 182 184 179 172 177 180 178 181 173 169 181 196 198 198 202 201 202 194 194 205 203 206 226 206 177 169 174
261 266 273 263 261 256 247 243 240 233 239 243 238 253 251 242 239 237 254 246 174 196 227 200 137 121 157 175 166 183 199 224 213 205 199 197 199 191 199 162 114 110 146 169 158 160 149 137 155 168 174 152 135 141 158 172 161 157 173 177 171 169 178 177 172 179 183 187 183 178 179 180 180 178 181 176 172 175 165 173 191 199 201 197 195 192 195 198 203 210 202 209 216 172 177 173 173
254 252 255 263 263 249 238 227 221 222 230 228 213 254 250 239 232 222 244 245 185 195 217 136 106 126 157 153 150 175 182 251 267 257 205 192 200 193 195 132 112 126 159 167 160 159 157 147 159 172 177 161 145 151 167 175 156 149 163 171 168 166 174 174 169 176 180 184 184 181 179 180 182 184 183 172 169 175 169 186 198 200 203 196 189 185 186 196 215 216 202 214 179 153 171 180 179
252 246 239 244 258 257 239 211 196 211 216 190 172 258 268 263 244 215 226 238 191 195 208 133 125 155 153 140 147 174 181 135 271 283 260 197 190 198 185 120 114 143 173 171 153 153 162 154 170 181 180 171 158 158 168 179 169 158 159 159 161 163 171 170 163 172 177 178 178 178 179 180 181 184 182 173 176 182 179 192 200 200 201 190 183 184 186 193 212 213 196 192 174 160 163 166 165
232 241 243 225 237 262 234 177 172 207 196 169 200 251 259 268 273 223 210 212 171 202 214 143 140 160 156 159 158 167 213 136 184 266 268 231 191 201 174 124 124 153 172 173 151 147 157 156 179 187 178 170 158 162 167 175 177 171 163 159 158 162 174 172 163 170 174 175 176 175 176 177 179 183 180 177 184 187 185 193 197 197 197 187 188 190 191 202 210 201 187 154 147 158 165 157 144
216 223 244 235 228 242 196 154 173 204 179 173 209 250 258 256 313 4 179 172 164 220 210 149 153 161 162 176 167 160 187 176 189 224 242 238 202 204 173 132 137 156 162 169 155 149 153 163 185 185 177 170 154 160 166 168 174 172 165 154 151 160 174 175 169 172 171 175 180 177 178 177 179 184 183 185 193 192 189 192 195 198 194 188 194 188 188 222 230 198 175 156 138 151 160 148 133
212 212 236 253 248 250 204 162 183 199 180 194 203 225 271 268 309 65 137 163 202 229 197 163 170 163 169 176 163 166 178 190 209 210 218 233 221 209 181 136 138 153 162 171 162 148 152 168 183 184 178 171 151 154 162 164 163 163 162 151 148 157 163 169 175 175 170 176 179 176 179 180 183 187 186 193 202 198 191 186 191 200 197 199 200 189 195 223 229 210 178 170 147 143 145 128 129
221 207 210 237 253 269 257 154 166 180 171 223 224 214 256 270 261 205 165 186 228 246 226 195 181 163 167 155 132 147 193 201 213 227 212 212 228 220 180 137 137 151 161 172 167 150 153 165 174 180 178 168 154 156 160 161 160 159 159 152 149 153 153 166 179 178 174 176 175 172 175 180 188 190 186 194 201 205 202 187 188 198 199 208 205 195 211 213 211 217 190 185 163 135 130 130 141
243 239 228 234 238 251 254 166 152 171 167 208 243 234 241 260 266 251 197 196 212 230 242 228 192 170 159 138 136 147 209 223 165 253 245 209 216 221 181 139 135 150 161 169 168 154 153 158 162 169 173 170 162 159 159 160 164 161 157 155 152 152 155 166 173 177 181 178 174 172 173 178 186 188 187 191 199 208 208 194 190 198 202 207 204 200 199 200 213 215 191 186 166 136 137 144 147
263 288 286 273 259 231 237 195 164 192 208 198 242 268 262 262 267 269 259 240 221 207 221 247 220 188 158 139 165 169 188 212 88 268 263 240 222 212 178 142 136 151 168 173 169 157 154 157 162 165 169 171 163 164 169 169 170 164 161 162 159 156 158 160 159 169 183 182 179 176 174 178 182 186 187 189 196 205 206 199 194 198 207 204 195 194 183 184 209 207 183 173 147 140 154 148 149
273 298 285 278 275 252 257 223 161 166 205 205 248 271 267 261 259 266 272 273 264 220 193 241 247 225 185 154 171 183 185 154 87 229 244 247 244 219 157 137 139 152 174 181 172 161 158 158 164 167 170 172 166 169 176 178 177 170 168 164 159 158 158 158 157 166 179 180 181 178 178 182 183 186 190 192 198 206 209 206 204 207 212 208 196 179 159 186 212 197 166 158 138 155 175 156 152
264 267 260 266 272 276 273 252 190 160 185 222 254 271 268 258 250 252 249 250 268 259 200 218 250 250 227 188 182 180 171 147 148 215 220 226 235 191 125 132 142 154 178 190 180 169 164 158 162 170 173 175 171 171 175 179 178 173 171 161 154 155 152 157 163 169 173 172 175 177 179 184 184 185 189 193 199 208 211 209 213 218 213 212 209 177 152 188 219 195 159 157 149 169 187 164 160
249 245 250 253 259 269 267 254 241 220 200 175 290 287 277 268 263 257 254 245 261 270 246 216 227 250 243 227 218 175 161 157 161 182 200 209 206 142 152 167 156 161 179 195 190 173 167 162 162 167 172 174 171 172 172 169 165 159 156 152 153 152 148 153 156 164 169 169 172 174 176 182 185 187 186 191 203 207 209 210 216 217 207 210 215 188 166 189 218 200 170 169 162 170 180 163 167
239 242 247 251 253 255 254 260 269 259 197 138 240 278 269 264 264 258 263 252 247 261 264 243 218 237 246 234 236 176 157 166 166 172 181 180 166 160 182 180 168 173 177 184 191 180 171 165 163 162 167 170 167 169 169 159 153 146 142 145 153 147 142 150 153 159 169 173 176 175 176 181 187 191 188 192 206 209 209 211 215 208 201 204 206 202 183 175 188 197 187 178 173 177 171 159 166
245 234 234 251 261 263 265 270 278 268 226 177 204 254 258 246 243 241 244 242 238 236 246 254 234 230 241 235 238 176 153 172 172 167 170 164 160 172 186 186 182 178 157 152 180 201 189 172 166 163 164 168 166 167 166 157 152 150 147 151 157 151 146 159 166 167 172 176 178 178 180 183 188 194 194 198 207 211 208 208 210 204 197 202 203 204 192 168 166 190 193 176 181 188 169 159 165
252 237 222 231 244 257 267 272 278 269 257 258 255 265 278 264 252 246 248 247 242 227 222 238 239 238 240 234 242 183 155 176 181 165 165 163 163 170 182 187 182 160 131 147 175 197 219 195 173 164 162 164 165 165 164 160 157 158 157 159 165 162 158 167 173 173 174 174 175 179 183 188 194 198 198 204 212 215 213 209 206 201 200 208 208 202 196 171 164 181 192 175 177 184 169 160 165
242 247 239 231 234 248 259 262 270 278 278 278 269 272 277 271 275 275 278 278 263 249 247 243 229 231 246 242 244 213 165 170 181 171 166 167 167 168 175 180 175 160 160 175 177 177 199 208 183 166 160 161 162 163 165 167 163 160 161 162 164 164 162 164 167 172 173 172 176 179 181 187 193 198 201 207 213 216 214 212 208 204 204 203 206 205 192 173 166 169 179 169 160 168 173 167 164
240 249 254 251 249 266 272 264 259 257 260 259 256 260 258 254 257 256 268 282 275 254 257 267 248 219 242 259 254 242 183 172 178 174 166 166 167 165 168 173 173 171 174 180 180 174 178 192 189 169 158 159 161 161 166 172 169 163 164 161 158 156 152 153 163 170 172 177 179 175 177 184 188 197 210 214 217 213 205 206 206 208 205 196 197 200 186 178 171 163 169 165 153 161 172 173 170
238 258 264 247 224 260 267 269 266 255 252 254 248 247 255 263 254 246 253 269 279 262 231 252 272 258 285 340 331 351 62 162 169 164 160 160 158 160 165 170 169 170 175 179 182 179 174 182 185 169 159 161 162 164 168 172 170 166 165 161 158 154 143 142 157 166 173 179 175 176 180 181 186 198 207 209 211 205 199 200 200 204 203 198 199 192 178 180 172 162 165 163 160 165 170 177 179
242 262 273 250 215 246 253 253 264 262 251 252 251 246 251 262 263 263 264 257 270 282 261 212 291 324 17 18 8 28 48 91 114 103 115 136 140 151 163 169 165 165 170 174 178 183 182 183 181 169 164 165 163 165 168 170 170 167 165 162 161 160 148 142 150 161 178 177 167 178 179 162 181 202 205 207 206 197 195 197 195 201 203 201 204 191 175 185 176 162 162 158 160 167 172 182 184
237 247 257 253 228 225 234 231 230 240 250 254 255 250 245 249 261 261 262 268 291 321 343 40 36 13 20 12 4 26 51 78 89 98 120 129 135 150 162 164 162 160 162 168 176 184 186 184 182 175 169 166 164 166 167 167 168 164 162 161 159 160 152 146 155 168 184 178 161 168 173 170 191 199 197 202 201 192 191 194 190 194 201 201 206 194 175 185 175 157 157 157 160 165 171 181 183
227 233 220 238 246 225 225 226 221 234 245 250 257 254 250 249 254 261 274 336 43 54 46 42 34 17 14 7 4 13 38 84 99 113 133 138 144 154 160 162 166 164 163 170 176 179 180 182 184 178 169 166 164 165 166 164 165 163 164 165 162 162 157 153 161 169 175 169 159 167 178 184 187 182 183 187 186 187 185 189 189 187 195 199 201 192 173 178 173 159 157 158 162 166 168 174 175
218 234 221 218 236 236 227 225 234 250 252 265 279 272 262 261 263 292 43 61 56 54 53 47 39 29 17 8 5 10 32 79 102 65 62 43 40 68 157 166 174 173 171 175 175 176 179 180 184 179 168 167 165 164 164 161 163 163 166 170 165 163 161 156 157 161 162 162 162 169 175 174 171 169 174 175 172 175 171 176 183 181 191 192 189 187 175 174 168 161 160 157 161 167 166 170 174
210 225 234 228 231 245 246 238 240 260 279 289 298 288 249 240 314 15 66 73 59 48 47 44 41 30 16 13 11 13 39 67 52 34 40 26 11 353 338 331 308 205 196 185 172 175 181 178 182 179 169 169 166 163 162 160 163 162 162 167 161 158 159 153 152 155 157 157 158 164 165 162 164 164 164 163 162 162 159 161 163 166 183 179 177 183 174 166 160 165 167 158 159 170 171 164 166
206 210 227 232 235 248 258 270 274 292 305 277 262 279 268 212 54 40 59 67 55 46 40 38 39 25 10 19 13 5 33 57 41 45 54 28 14 5 342 341 351 316 265 234 181 179 181 174 177 177 172 174 168 163 161 158 161 162 162 164 159 157 155 148 151 154 150 148 151 157 159 157 159 157 154 157 160 160 159 159 160 162 165 163 169 173 162 155 156 162 166 156 155 169 178 163 159
225 216 227 236 241 248 254 261 270 269 261 256 230 241 265 230 75 56 53 51 47 46 40 38 40 27 10 11 11 4 15 34 39 53 74 33 11 20 339 330 337 295 267 249 206 191 183 171 172 174 174 178 171 165 163 158 158 160 161 161 159 161 159 152 150 150 146 145 149 152 151 149 148 148 151 156 159 160 160 163 160 152 144 146 154 149 143 148 153 157 159 159 156 159 173 175 168
248 234 232 244 244 248 252 243 250 250 243 242 231 240 246 220 92 50 48 40 37 44 46 44 37 26 10 359 6 9 4 10 27 37 52 59 23 1 326 300 308 287 264 247 216 193 181 172 173 175 174 179 178 169 161 156 156 158 160 159 158 164 169 159 151 149 147 146 146 145 142 143 145 147 151 155 157 160 158 154 145 139 137 138 133 128 132 137 144 151 151 154 156 154 161 179 181
235 245 240 242 244 243 244 243 241 244 248 242 235 245 268 58 48 52 53 41 36 36 40 51 47 26 359 343 357 12 11 9 18 25 25 24 16 15 6 322 303 271 251 250 229 194 179 176 178 177 175 177 178 167 154 153 156 158 157 156 157 166 172 164 155 152 149 147 146 144 143 146 147 149 152 154 156 155 154 150 142 139 138 136 133 133 136 133 133 142 139 142 151 153 155 164 176
225 241 239 233 256 261 238 238 246 243 248 252 243 239 59 42 17 28 47 44 44 44 41 51 58 43 359 4 13 14 23 21 15 20 12 349 358 29 31 350 316 269 247 253 242 211 185 179 178 175 175 176 172 162 151 151 157 158 154 152 155 162 165 160 155 152 150 151 150 147 148 148 148 152 152 153 157 154 154 153 145 144 143 140 139 136 137 138 139 149 144 138 144 148 148 154 165
217 234 238 232 241 255 244 229 236 249 253 258 260 242 88 39 6 2 21 38 44 54 62 57 58 56 39 55 48 21 22 27 20 21 16 7 27 28 34 37 0 295 272 269 261 248 216 198 185 172 175 177 165 157 152 151 155 156 153 153 156 158 158 157 158 159 157 155 151 149 150 149 149 152 150 152 157 154 156 157 151 152 148 144 143 139 137 139 144 152 144 143 151 154 157 159 160
235 230 247 255 245 240 247 237 219 230 243 250 253 169 86 33 23 13 16 31 36 42 59 65 53 45 37 57 62 41 28 28 25 26 21 23 30 21 27 35 13 313 301 300 293 286 249 223 205 176 175 177 164 156 156 155 154 154 156 158 158 157 157 160 164 165 159 154 152 150 151 150 149 149 152 155 153 148 153 154 149 144 136 134 137 135 134 136 142 144 135 144 156 157 160 160 156